Regional Weather Roundup
Issued by NWS Newport/Morehead, NC

Home | Current Version | Previous Version | Text Only | Print | Product List | Glossary On
Versions: 1 2 3 4 5 6 7 8 9 10 11 12 13 14 15 16 17 18 19 20 21 22 23 24 25 26 27 28 29 30 31 32 33 34 35 36 37 38 39 40 41 42 43 44 45 46 47 48 49 50
000
ASUS42 KMHX 300012
RWRMHX
WEATHER ROUNDUP FOR EASTERN NORTH CAROLINA
NATIONAL WEATHER SERVICE NEWPORT/MOREHEAD CITY NC
800 PM EDT SUN MAR 29 2015

NOTE: "FAIR" INDICATES FEW OR NO CLOUDS BELOW 12,000 FEET
WITH NO SIGNIFICANT WEATHER AND/OR OBSTRUCTIONS TO VISIBILITY

NCZ015>017-031-032-045>047-102-103-300100-
NORTH COAST

CITY           SKY/WX    TMP DP  RH WIND       PRES   REMARKS
EDENTON        CLEAR     44  16  32 W3        30.31F
ELIZABETH CITY CLEAR     41  17  38 S3        30.31S
KITTY HAWK     CLEAR     35  22  59 CALM      30.31S
MANTEO         CLEAR     36  23  60 CALM      30.33S

$$

NCZ045>047-081-094-103-104-300100-
CENTRAL COAST

CITY           SKY/WX    TMP DP  RH WIND       PRES   REMARKS
FRISCO         CLEAR     34  23  64 E6        30.35R
SWANQUARTER      N/A     41 N/A N/A CALM      30.30S

$$

NCZ095-097-098-100-101-300100-
SOUTHERN COAST

CITY           SKY/WX    TMP DP  RH WIND       PRES   REMARKS
BEAUFORT       CLEAR     43  27  53 S5        30.34F
CEDAR ISLAND     N/A     39 N/A N/A S1        30.39S
JACKSONVILLE   CLEAR     43  18  36 CALM      30.33F
PINEY ISLAND   CLEAR    N/A N/A N/A SE5       30.34F
WILMINGTON     CLEAR     45  26  47 CALM      30.33F


$$

NCZ011>013-027>030-043-044-078>080-089-090>093-098-300100-
COASTAL PLAIN

CITY           SKY/WX    TMP DP  RH WIND       PRES   REMARKS
AHOSKIE        CLEAR     37  26  65 CALM      30.30F
CLINTON        CLEAR     43  23  45 CALM      30.32S
ELIZABETHTOWN  CLEAR     44  24  45 CALM      30.33R
GOLDSBORO      CLEAR     44  19  36 S3        30.29F
GREENVILLE     CLEAR     43  19  39 CALM      30.32F
HAVELOCK       CLEAR     42  17  36 CALM      30.34F
KENANSVILLE    CLEAR     40  21  46 CALM      30.34S
KINSTON        CLEAR     39  27  60 CALM      30.32F
NEW BERN       CLEAR     39  22  50 CALM      30.33F
RICHLANDS      CLEAR     39  25  56 CALM      30.33F
ROCKY MOUNT    CLEAR     40  26  57 CALM      30.30F
WASHINGTON     CLEAR     44  16  32 SW3       30.32F
WHITEVILLE     CLEAR     45  24  44 CALM      30.33R

$$

AMZ130-135-150-152-154-156-158-170-250-252-270-ANZ085-086-088-633-658-670-300100-
MARINE OBSERVATIONS

STATION/POSITION TIME  TEMP    WIND        PRES    WAVE   SWELL
                       AIR SEA DIR/SP/G            HT/PER HT/PER
                 (UTC) (F)     (DEG/KT/KT) (MB)    (FT/S) (FT/S)
CHESAPEAKE LIGHT 2300   38      50/  2/  3 1026.7
64 E VA BEACH    2350   39 54  320/ 10/ 16 1025.9    5/ 9   3/ 9
DUCK             2300      43  140/  6/  7 1025.8
2 E DUCK         2311      42                N/A     3/ 6
10 NE DUCK       NOT AVBL
OREGON INLET     2300   37 45   30/  4/  5 1026.8
HATTERAS CG      2300   43 49  290/  3/  5 1027.6
CAPE LOOKOUT     0000   44     240/  2/  2 1027.1
BEAUFORT LAB     2300   47 53  230/  4/  7 1026.8
27 SE WRIGHTSVLE 2300   44 65   CALM  /  2 1029.3
5 SE WRIGHTSVLE  2300   48 56  230/  6/  8 1027.6
225 S CAPE HAT   2350   52 68  340/ 17/ 21 1026.8    7/ 8   3/ 8
41 SE CHARLESTON 2350   52 68   50/ 10/ 12 1027.5    3/ 9   3/ 9

$$


USA.gov is the U.S. government's official web portal to all federal, state and local government web resources and services.